This is the latest recevied weather packets stored in our database for station/object KI5NXU. If no packets are shown the sender has not sent any weather packets the latest 10 day(s).
| Time | Temp. | Humidity | Pressure | Rain* | Wind** | Luminosity | Snow |
|---|---|---|---|---|---|---|---|
| 1777753427 | 23.33° C | 43% | 1019.7 hPa | 0 mm | - | 636 W/m² | - |
| 1777753124 | 24.44° C | 41% | 1019.7 hPa | 0 mm | - | 629 W/m² | - |
| 1777752820 | 24.44° C | 39% | 1019.8 hPa | 0 mm | - | 629 W/m² | - |
| 1777752517 | 23.89° C | 40% | 1019.8 hPa | 0 mm | - | 639 W/m² | - |
| 1777752212 | 25° C | 42% | 1019.7 hPa | 0 mm | - | 672 W/m² | - |
| 1777751911 | 24.44° C | 41% | 1019.8 hPa | 0 mm | - | 662 W/m² | - |
| 1777751607 | 22.78° C | 42% | 1019.6 hPa | 0 mm | - | 688 W/m² | - |
| 1777751304 | 23.89° C | 45% | 1019.8 hPa | 0 mm | - | 739 W/m² | - |
| 1777751001 | 23.89° C | 45% | 1020.1 hPa | 0 mm | - | 732 W/m² | - |
| 1777750696 | 22.78° C | 43% | 1020 hPa | 0 mm | - | 749 W/m² | - |
| 1777750394 | 22.78° C | 43% | 1020 hPa | 0 mm | - | 759 W/m² | - |
| 1777750095 | 23.33° C | 42% | 1020.2 hPa | 0 mm | - | 759 W/m² | - |
| 1777749792 | 23.89° C | 42% | 1020.3 hPa | 0 mm | - | 739 W/m² | - |
| 1777749490 | 22.78° C | 48% | 1020.3 hPa | 0 mm | - | 721 W/m² | - |
| 1777749187 | 23.89° C | 45% | 1020.2 hPa | 0 mm | - | 696 W/m² | - |
| 1777748884 | 22.78° C | 46% | 1020.3 hPa | 0 mm | - | 701 W/m² | - |
| 1777748581 | 23.89° C | 43% | 1020.4 hPa | 0 mm | - | 682 W/m² | - |
| 1777748276 | 23.33° C | 46% | 1020.2 hPa | 0 mm | - | 692 W/m² | - |
| 1777747973 | 23.33° C | 45% | 1020.3 hPa | 0 mm | - | 708 W/m² | - |
| 1777747669 | 23.33° C | 44% | 1020.6 hPa | 0 mm | - | 721 W/m² | - |
| 1777747365 | 22.78° C | 45% | 1020.5 hPa | 0 mm | - | 708 W/m² | - |
| 1777747062 | 22.78° C | 43% | 1020.6 hPa | 0 mm | - | 708 W/m² | - |
| 1777746758 | 23.89° C | 42% | 1020.6 hPa | 0 mm | - | 719 W/m² | - |
| 1777746453 | 23.89° C | 41% | 1020.7 hPa | 0 mm | - | 725 W/m² | - |
| 1777746149 | 23.33° C | 41% | 1020.9 hPa | 0 mm | - | 723 W/m² | - |
* Rain latest hour (hover to see other rain measurements)
** Current wind speed in m/s (hover to see current wind gust speed)